This is the latest recevied weather packets stored in our database for station/object K0VSC-1. If no packets are shown the sender has not sent any weather packets the latest 10 day(s).
| Time | Temp. | Humidity | Pressure | Rain* | Wind** | Luminosity | Snow |
|---|---|---|---|---|---|---|---|
| 1777930987 | 8.33° C | 46% | 1002.7 hPa | 0 mm | - | 202 W/m² | - |
| 1777930687 | 8.33° C | 46% | 1002.6 hPa | 0 mm | - | 214 W/m² | - |
| 1777930388 | 8.33° C | 45% | 1002.6 hPa | 0 mm | - | 279 W/m² | - |
| 1777930087 | 8.89° C | 46% | 1002.6 hPa | 0 mm | - | 206 W/m² | - |
| 1777929787 | 8.89° C | 46% | 1002.5 hPa | 0 mm | - | 195 W/m² | - |
| 1777929488 | 8.89° C | 45% | 1002.3 hPa | 0 mm | - | 200 W/m² | - |
| 1777929188 | 8.89° C | 45% | 1002.4 hPa | 0 mm | - | 223 W/m² | - |
| 1777928888 | 9.44° C | 44% | 1002.3 hPa | 0 mm | - | 188 W/m² | - |
| 1777928588 | 9.44° C | 43% | 1002.2 hPa | 0 mm | - | 214 W/m² | - |
| 1777928288 | 8.89° C | 44% | 1002 hPa | 0 mm | - | 330 W/m² | - |
| 1777927988 | 8.89° C | 44% | 1002 hPa | 0 mm | - | 272 W/m² | - |
| 1777927688 | 8.89° C | 45% | 1002.1 hPa | 0 mm | - | 237 W/m² | - |
| 1777927388 | 9.44° C | 45% | 1002 hPa | 0 mm | - | 216 W/m² | - |
| 1777927088 | 9.44° C | 45% | 1001.8 hPa | 0 mm | - | 287 W/m² | - |
| 1777926788 | 8.89° C | 46% | 1001.7 hPa | 0 mm | - | 429 W/m² | - |
| 1777926488 | 9.44° C | 45% | 1001.7 hPa | 0 mm | - | 237 W/m² | - |
| 1777926188 | 9.44° C | 45% | 1001.8 hPa | 0 mm | - | 330 W/m² | - |
| 1777925888 | 9.44° C | 44% | 1001.6 hPa | 0 mm | - | 364 W/m² | - |
| 1777925588 | 9.44° C | 44% | 1001.6 hPa | 0 mm | - | 279 W/m² | - |
| 1777925288 | 9.44° C | 44% | 1001.6 hPa | 0 mm | - | 362 W/m² | - |
| 1777924988 | 9.44° C | 46% | 1001.5 hPa | 0 mm | - | 323 W/m² | - |
| 1777924688 | 9.44° C | 44% | 1001.5 hPa | 0 mm | - | 308 W/m² | - |
| 1777924388 | 9.44° C | 44% | 1001.4 hPa | 0 mm | - | 255 W/m² | - |
| 1777924088 | 9.44° C | 47% | 1001.4 hPa | 0 mm | - | 369 W/m² | - |
| 1777923788 | 9.44° C | 49% | 1001.4 hPa | 0 mm | - | 348 W/m² | - |
* Rain latest hour (hover to see other rain measurements)
** Current wind speed in m/s (hover to see current wind gust speed)